Weather Roundup
Issued by NWS Chicago, IL

Home | Current Version | Previous Version | Text Only | Print | Product List | Glossary On
Versions: 1 2 3 4 5 6 7 8 9 10 11 12 13 14 15 16 17 18 19 20 21 22 23 24 25 26 27 28 29 30 31 32 33 34 35 36 37 38 39 40 41 42 43 44 45 46 47 48 49 50
000
NZUS59 KLOT 250210
HRRLOT

CHICAGO AREA WEATHER ROUNDUP
NATIONAL WEATHER SERVICE CHICAGO/ROMEOVILLE IL
900 PM CDT THU JUL 24 2014

NOTE: "FAIR" INDICATES FEW OR NO CLOUDS BELOW 12,000 FEET WITH NO
SIGNIFICANT WEATHER AND/OR OBSTRUCTIONS TO VISIBILITY.

* THESE STATIONS ARE NOT UNDER NWS QUALITY CONTROL. THEY ALSO MAY NOT
  REPORT WEATHER SUCH AS PRECIPITATION OR FOG.

ILZ005-006-012>014-019>023-250300-
NORTHEAST ILLINOIS

CITY           SKY/WX    TMP DP  RH WIND       PRES   REMARKS
OHARE          MOCLDY    67  42  40 E8        30.06F
MIDWAY         CLOUDY    68  49  50 E7        30.08F
AURORA         MOCLDY    64  52  64 SE6       30.07F
LANSING*       PTCLDY    62  49  61 CALM      30.10F
JOLIET*        MOCLDY    64  46  53 E5        30.09S
WAUKEGAN       MOCLDY    60  50  69 SE5       30.06F
DUPAGE AIRPORT PTCLDY    66  47  50 E7        30.06F
WHEELING       MOCLDY    66  44  45 SE6       30.08F
KANKAKEE*      MOCLDY    61  55  78 NE5       30.08F
MORRIS*        MOCLDY    64  55  70 E5        30.07S
LEWIS AIRPORT* MOCLDY    64  46  53 E5        30.07F
NORTHERLY IS   NOT AVBL
$$

WIZ051-052-058>065-066-070>072-250300-
SOUTHEAST WISCONSIN

CITY           SKY/WX    TMP DP  RH WIND       PRES   REMARKS
MILWAUKEE      MOCLDY    63  45  51 S7        30.06F
KENOSHA*       MOCLDY    62  46  55 SE5       30.07F
RACINE*        MOCLDY    63  49  60 S8        30.08F
BURLINGTON     MOCLDY    61  46  57 SE5       30.05F
WAUKESHA       MOCLDY    72  46  40 SE7       30.06F
WEST BEND      MOCLDY    61  41  48 CALM      30.06S
$$

INZ001>003-010>013-019-020-250300-
NORTHWEST INDIANA

CITY           SKY/WX    TMP DP  RH WIND       PRES   REMARKS
GARY*          PTCLDY    59  55  88 CALM      30.10F
MICHIGAN CITY* NOT AVBL
RENSSELAER*    NOT AVBL
VALPARAISO     CLEAR     59  51  75 N3        30.11R
$$

LMZ740>746-250300-
SOUTHERN LAKE MICHIGAN

STATION/POSITION TIME  SKY/WX   TEMP WIND        PRES    VSBY
                                AIR  DIR/SP/G
                 (UTC)          (F)  (DEG/KT/KT) (MB)    (MI)
HARRISON CRIB    0200            64  120/  4/  5   N/A
BURNHAM HARBOR   NOT AVBL
CALUMET HARBOR   0200            65   90/  4/  5 1017.7F
BURNS HARBOR     NOT AVBL
MICHIGAN CITY    0200            65  360/  6/  7   N/A
$$

ABBREVIATIONS USED IN REMARKS
   TC - TEMPERATURE IN CELSIUS
  WCI - WIND CHILL INDEX
   HX - HEAT INDEX
  VSB - VISIBILITY
$$



USA.gov is the U.S. government's official web portal to all federal, state and local government web resources and services.